AirNav   Jet Aviation Boston
 
 563 users online  

ME6 Wales Airport
Wales, Maine, USA

GOING TO WALES?


FAA INFORMATION EFFECTIVE 24 MAY 2018

Location

FAA Identifier: ME6
Lat/Long: 44-10-28.3000N / 070-01-08.2000W
44-10.471667N / 070-01.136667W
44.1745278 / -70.0189444
(estimated)
Elevation: 210 ft. / 64 m (estimated)
Variation: 17W (1995)
From city: 2 miles SSW of WALES, ME
Time zone: UTC -4 (UTC -5 during Standard Time)
Zip code: 04280

Airport Operations

Airport use: Open to the public
Activation date: 06/1999
Control tower: no
ARTCC: BOSTON CENTER
FSS: BANGOR FLIGHT SERVICE STATION
NOTAMs facility: BGR (NOTAM-D service available)
Attendance: UNATNDD
Wind indicator: yes
Segmented circle: no

Airport Communications

CTAF: 122.9
WX ASOS at AUG (13 nm NE): 118.325 (207-623-0432)
WX AWOS-3PT at LEW (14 nm SW): 118.025 (207-783-2806)
WX AWOS-AV at BXM (17 nm S): 134.875 (207-409-1747)
WX ASOS-A at IWI (18 nm SE): 135.725 (207-882-8094)
  • CLNC DLVY THRU FLIGHT SERVICES 1-800-WX-BRIEF.

Nearby radio navigation aids

VOR radial/distance  VOR name  Freq  Var
AUGr246/12.9AUGUSTA VOR/DME111.4018W

Airport Services

Runway Information

Runway 4/22

Dimensions: 2100 x 80 ft. / 640 x 24 m
Surface: turf, in good condition
SOFT IN SPRING; CALL PRIOR TO LNDG 207-754-1372.
Runway edge markings: HAS WHITE PLASTIC BARREL EDGE MARKERS .
HAS WHITE PLASTIC BARREL MARKERS ALONG SIDE OF RY WITH THLD MKD WITH SINGLE WHITE BARREL.
RUNWAY 4  RUNWAY 22
Traffic pattern: leftleft
Markings: NSTDNSTD
Obstructions: 15 ft. gnd, 20 ft. from runway, 70 ft. left and right of centerline40 ft. tree, 200 ft. from runway, 71 ft. left of centerline, 5:1 slope to clear

Airport Ownership and Management from official FAA records

Ownership: Privately-owned
Owner: THOMAS P. O'CONNELL
222 RIDGE ROAD
WALES, ME 04280
Phone (207) 754-1372
Manager: THOMAS P. CONNELL
222 RIDGE ROAD
WALES, ME 04259
Phone (207) 754-1372

Airport Operational Statistics

Aircraft operations: avg 25/month *
83% local general aviation
17% transient general aviation
* for 12-month period ending 10 August 2016

Additional Remarks

1,239 FT MSL TWR, 7,000 FT SE & 968 FT MSL TWR 9,600 FT SSE OF ARPT.
TWR 9,500 S.
ARPT CLSD NOV-MAY; EXCEPT FOR SKIING.
AIRCRAFT SHOULD MONITOR 122.8 IN VICINITY OF AIRPORT.

Instrument Procedures

There are no published instrument procedures at ME6.

Some nearby airports with instrument procedures:

KAUG - Augusta State Airport (13 nm NE)
KLEW - Auburn/Lewiston Municipal Airport (14 nm SW)
KBXM - Brunswick Executive Airport (17 nm S)
KIWI - Wiscasset Airport (18 nm SE)
81B - Oxford County Regional Airport (20 nm W)
 
Loc | Ops | Rwys | IFR | FBO | Links
Com | Nav | Svcs | Stats | Notes

Auburn-Lewiston Municipal Airport
 
Area around ME6 (Wales Airport)
 
Road maps at: MapQuest Bing Google
 
Aerial photo
WARNING: Photo may not be current or correct
Aerial photo of ME6 (Wales Airport)
Do you have a better or more recent aerial photo of Wales Airport that you would like to share? If so, please send us your photo.

 
Sectional chart

 
Airport distance calculator
Flying to Wales Airport? Find the distance to fly.

From to ME6

Sunrise and sunset
Times for 21-Jun-2018
 Local
(UTC-4)
 Zulu
(UTC)
Morning civil twilight04:2108:21
Sunrise04:5708:57
Sunset20:2600:26
Evening civil twilight21:0301:03

Current date and time
Zulu (UTC)  21-Jun-2018 05:01:47
Local (UTC-4)  21-Jun-2018 01:01:47
 
METAR
KAUG 
13nm NE 
210453Z AUTO 21003KT 10SM CLR 17/12 A2971 RMK AO2 SLP059 T01720117 402670122
KLEW 
14nm SW 
210456Z AUTO 00000KT 10SM CLR 14/12 A2972 RMK AO2 SLP077 T01390117
KIWI 
18nm SE 
210453Z AUTO 00000KT 10SM CLR 13/12 A2972 RMK AO2 SLP064 T01280122 402500078
TAF
KAUG 
13nm NE 
201720Z 2018/2118 23011G18KT P6SM SKC FM210000 22007KT P6SM SKC FM210500 31005KT P6SM OVC100 FM211100 36008KT P6SM BKN250
NOTAMs
Click for the latest NOTAMs
NOTAMs are issued by the DoD/FAA and will open in a separate window not controlled by AirNav.

 

 
 

Would you like to see your business listed on this page?

 If your business provides an interesting product or service to pilots, flight crews, aircraft, or users of the Wales Airport, you should consider listing it here.  To start the listing process, click on the button below
 
Add a business
 

Other Pages about Wales Airport

Update a link
 
Copyright © AirNav, LLC. All rights reserved. Privacy Policy  Contact